Year,Month,Day,Hour,Minute,Value (Times are PST for windspeed in km/hr)
2007,11,30,00,00,10.60
2007,11,30,00,01,9.70
2007,11,30,00,02,15.10
2007,11,30,00,03,14.30
2007,11,30,00,04,15.80
2007,11,30,00,05,13.30
2007,11,30,00,06,8.50
2007,11,30,00,07,6.80
2007,11,30,00,08,10.50
2007,11,30,00,09,16.50
2007,11,30,00,10,14.60
2007,11,30,00,11,11.30
2007,11,30,00,12,13.00
2007,11,30,00,13,10.90
2007,11,30,00,14,12.10
2007,11,30,00,15,15.50
2007,11,30,00,16,13.30
2007,11,30,00,17,15.00
2007,11,30,00,18,12.20
2007,11,30,00,19,11.50
2007,11,30,00,20,18.20
2007,11,30,00,21,16.00
2007,11,30,00,22,15.70
2007,11,30,00,23,18.10
2007,11,30,00,24,13.30
2007,11,30,00,25,17.30
2007,11,30,00,26,10.10
2007,11,30,00,27,10.10
2007,11,30,00,28,12.60
2007,11,30,00,29,14.20
2007,11,30,00,30,16.70
2007,11,30,00,31,15.80
2007,11,30,00,32,14.00
2007,11,30,00,33,15.70
2007,11,30,00,34,15.50
2007,11,30,00,35,17.80
2007,11,30,00,36,12.60
2007,11,30,00,37,15.40
2007,11,30,00,38,12.20
2007,11,30,00,39,15.10
2007,11,30,00,40,16.90
2007,11,30,00,41,13.90
2007,11,30,00,42,20.30
2007,11,30,00,43,8.30
2007,11,30,00,44,13.60
2007,11,30,00,45,18.50
2007,11,30,00,46,19.10
2007,11,30,00,47,19.40
2007,11,30,00,48,14.50
2007,11,30,00,49,12.90
2007,11,30,00,50,10.50
2007,11,30,00,51,17.90
2007,11,30,00,52,11.30
2007,11,30,00,53,15.80
2007,11,30,00,54,18.30
2007,11,30,00,55,16.70
2007,11,30,00,56,13.40
2007,11,30,00,57,11.80
2007,11,30,00,58,20.70
2007,11,30,00,59,14.90
2007,11,30,01,00,12.50
2007,11,30,01,01,9.30
2007,11,30,01,02,8.90
2007,11,30,01,03,13.50
2007,11,30,01,04,13.30
2007,11,30,01,05,16.10
2007,11,30,01,06,11.40
2007,11,30,01,07,10.60
2007,11,30,01,08,8.80
2007,11,30,01,09,9.60
2007,11,30,01,10,7.90
2007,11,30,01,11,7.20
2007,11,30,01,12,16.00
2007,11,30,01,13,17.10
2007,11,30,01,14,16.70
2007,11,30,01,15,6.90
2007,11,30,01,16,9.70
2007,11,30,01,17,9.20
2007,11,30,01,18,9.20
2007,11,30,01,19,10.40
2007,11,30,01,20,8.50
2007,11,30,01,21,13.60
2007,11,30,01,22,16.30
2007,11,30,01,23,13.90
2007,11,30,01,24,14.10
2007,11,30,01,25,13.30
2007,11,30,01,26,13.90
2007,11,30,01,27,10.10
2007,11,30,01,28,8.20
2007,11,30,01,29,12.10
2007,11,30,01,30,12.50
2007,11,30,01,31,18.70
2007,11,30,01,32,16.50
2007,11,30,01,33,16.10
2007,11,30,01,34,15.40
2007,11,30,01,35,10.30
2007,11,30,01,36,6.50
2007,11,30,01,37,18.90
2007,11,30,01,38,18.30
2007,11,30,01,39,18.30
2007,11,30,01,40,11.50
2007,11,30,01,41,15.50
2007,11,30,01,42,9.20
2007,11,30,01,43,11.40
2007,11,30,01,44,8.00
2007,11,30,01,45,21.40
2007,11,30,01,46,19.90
2007,11,30,01,47,15.80
2007,11,30,01,48,14.50
2007,11,30,01,49,9.50
2007,11,30,01,50,15.40
2007,11,30,01,51,18.50
2007,11,30,01,52,15.50
2007,11,30,01,53,10.50
2007,11,30,01,54,11.80
2007,11,30,01,55,10.20
2007,11,30,01,56,9.40
2007,11,30,01,57,15.00
2007,11,30,01,58,16.10
2007,11,30,01,59,12.80
2007,11,30,02,00,14.40
2007,11,30,02,01,13.80
2007,11,30,02,02,15.90
2007,11,30,02,03,16.20
2007,11,30,02,04,13.30
2007,11,30,02,05,19.80
2007,11,30,02,06,17.50
2007,11,30,02,07,11.00
2007,11,30,02,08,11.50
2007,11,30,02,09,15.00
2007,11,30,02,10,18.70
2007,11,30,02,11,13.60
2007,11,30,02,12,16.60
2007,11,30,02,13,13.30
2007,11,30,02,14,18.40
2007,11,30,02,15,20.50
2007,11,30,02,16,17.40
2007,11,30,02,17,14.30
2007,11,30,02,18,13.10
2007,11,30,02,19,17.70
2007,11,30,02,20,12.00
2007,11,30,02,21,18.00
2007,11,30,02,22,24.10
2007,11,30,02,23,16.40
2007,11,30,02,24,22.40
2007,11,30,02,25,16.40
2007,11,30,02,26,16.70
2007,11,30,02,27,17.70
2007,11,30,02,28,12.00
2007,11,30,02,29,12.80
2007,11,30,02,30,11.60
2007,11,30,02,31,15.30
2007,11,30,02,32,13.00
2007,11,30,02,33,15.50
2007,11,30,02,34,16.50
2007,11,30,02,35,14.30
2007,11,30,02,36,9.30
2007,11,30,02,37,9.30
2007,11,30,02,38,11.10
2007,11,30,02,39,12.60
2007,11,30,02,40,13.50
2007,11,30,02,41,17.00
2007,11,30,02,42,15.60
2007,11,30,02,43,19.90
2007,11,30,02,44,15.80
2007,11,30,02,45,17.80
2007,11,30,02,46,18.20
2007,11,30,02,47,15.10
2007,11,30,02,48,11.60
2007,11,30,02,49,16.90
2007,11,30,02,50,13.70
2007,11,30,02,51,16.90
2007,11,30,02,52,16.70
2007,11,30,02,53,19.40
2007,11,30,02,54,15.80
2007,11,30,02,55,16.90
2007,11,30,02,56,18.50
2007,11,30,02,57,11.70
2007,11,30,02,58,18.80
2007,11,30,02,59,18.10
2007,11,30,03,00,19.20
2007,11,30,03,01,20.50
2007,11,30,03,02,21.50
2007,11,30,03,03,17.00
2007,11,30,03,04,15.20
2007,11,30,03,05,15.70
2007,11,30,03,06,12.20
2007,11,30,03,07,10.50
2007,11,30,03,08,14.90
2007,11,30,03,09,16.80
2007,11,30,03,10,17.60
2007,11,30,03,11,18.00
2007,11,30,03,12,17.00
2007,11,30,03,13,14.80
2007,11,30,03,14,18.00
2007,11,30,03,15,14.10
2007,11,30,03,16,16.70
2007,11,30,03,17,15.00
2007,11,30,03,18,14.50
2007,11,30,03,19,12.60
2007,11,30,03,20,11.20
2007,11,30,03,21,14.90
2007,11,30,03,22,17.00
2007,11,30,03,23,15.60
2007,11,30,03,24,12.90
2007,11,30,03,25,13.70
2007,11,30,03,26,17.80
2007,11,30,03,27,14.60
2007,11,30,03,28,9.70
2007,11,30,03,29,9.30
2007,11,30,03,30,13.80
2007,11,30,03,31,10.90
2007,11,30,03,32,14.70
2007,11,30,03,33,14.80
2007,11,30,03,34,19.00
2007,11,30,03,35,17.30
2007,11,30,03,36,11.90
2007,11,30,03,37,10.80
2007,11,30,03,38,15.20
2007,11,30,03,39,12.00
2007,11,30,03,40,11.40
2007,11,30,03,41,14.30
2007,11,30,03,42,15.80
2007,11,30,03,43,12.70
2007,11,30,03,44,13.90
2007,11,30,03,45,17.70
2007,11,30,03,46,15.40
2007,11,30,03,47,10.90
2007,11,30,03,48,12.00
2007,11,30,03,49,10.10
2007,11,30,03,50,17.40
2007,11,30,03,51,16.30
2007,11,30,03,52,14.60
2007,11,30,03,53,15.80
2007,11,30,03,54,12.40
2007,11,30,03,55,12.50
2007,11,30,03,56,12.60
2007,11,30,03,57,13.00
2007,11,30,03,58,12.70
2007,11,30,03,59,9.10
2007,11,30,04,00,8.40
2007,11,30,04,01,10.40
2007,11,30,04,02,14.60
2007,11,30,04,03,16.10
2007,11,30,04,04,9.20
2007,11,30,04,05,9.40
2007,11,30,04,06,10.50
2007,11,30,04,07,13.70
2007,11,30,04,08,14.70
2007,11,30,04,09,12.10
2007,11,30,04,10,12.90
2007,11,30,04,11,13.90
2007,11,30,04,12,11.80
2007,11,30,04,13,14.80
2007,11,30,04,14,14.00
2007,11,30,04,15,19.00
2007,11,30,04,16,13.00
2007,11,30,04,17,16.70
2007,11,30,04,18,11.90
2007,11,30,04,19,14.70
2007,11,30,04,20,16.10
2007,11,30,04,21,17.20
2007,11,30,04,22,16.20
2007,11,30,04,23,14.50
2007,11,30,04,24,15.10
2007,11,30,04,25,17.70
2007,11,30,04,26,16.30
2007,11,30,04,27,14.40
2007,11,30,04,28,16.40
2007,11,30,04,29,14.70
2007,11,30,04,30,15.60
2007,11,30,04,31,19.10
2007,11,30,04,32,22.10
2007,11,30,04,33,18.30
2007,11,30,04,34,13.40
2007,11,30,04,35,16.00
2007,11,30,04,36,15.10
2007,11,30,04,37,15.80
2007,11,30,04,38,14.70
2007,11,30,04,39,10.60
2007,11,30,04,40,20.30
2007,11,30,04,41,14.70
2007,11,30,04,42,13.50
2007,11,30,04,43,14.20
2007,11,30,04,44,12.70
2007,11,30,04,45,13.70
2007,11,30,04,46,15.10
2007,11,30,04,47,14.40
2007,11,30,04,48,15.60
2007,11,30,04,49,10.80
2007,11,30,04,50,15.10
2007,11,30,04,51,14.20
2007,11,30,04,52,12.60
2007,11,30,04,53,15.80
2007,11,30,04,54,19.60
2007,11,30,04,55,13.40
2007,11,30,04,56,18.10
2007,11,30,04,57,15.70
2007,11,30,04,58,16.30
2007,11,30,04,59,14.70
2007,11,30,05,00,11.30
2007,11,30,05,01,14.70
2007,11,30,05,02,19.30
2007,11,30,05,03,17.60
2007,11,30,05,04,12.00
2007,11,30,05,05,14.40
2007,11,30,05,06,9.40
2007,11,30,05,07,12.30
2007,11,30,05,08,14.20
2007,11,30,05,09,10.40
2007,11,30,05,10,11.60
2007,11,30,05,11,14.10
2007,11,30,05,12,13.80
2007,11,30,05,13,11.50
2007,11,30,05,14,12.00
2007,11,30,05,15,19.20
2007,11,30,05,16,14.00
2007,11,30,05,17,19.80
2007,11,30,05,18,18.40
2007,11,30,05,19,10.50
2007,11,30,05,20,16.20
2007,11,30,05,21,20.80
2007,11,30,05,22,15.50
2007,11,30,05,23,13.00
2007,11,30,05,24,13.30
2007,11,30,05,25,13.60
2007,11,30,05,26,12.90
2007,11,30,05,27,15.50
2007,11,30,05,28,19.70
2007,11,30,05,29,13.90
2007,11,30,05,30,13.00
2007,11,30,05,31,13.10
2007,11,30,05,32,13.40
2007,11,30,05,33,13.00
2007,11,30,05,34,12.00
2007,11,30,05,35,12.90
2007,11,30,05,36,15.80
2007,11,30,05,37,13.90
2007,11,30,05,38,15.20
2007,11,30,05,39,13.80
2007,11,30,05,40,10.10
2007,11,30,05,41,13.50
2007,11,30,05,42,16.70
2007,11,30,05,43,15.00
2007,11,30,05,44,18.30
2007,11,30,05,45,16.30
2007,11,30,05,46,14.40
2007,11,30,05,47,17.50
2007,11,30,05,48,17.70
2007,11,30,05,49,13.50
2007,11,30,05,50,16.50
2007,11,30,05,51,15.30
2007,11,30,05,52,13.80
2007,11,30,05,53,12.00
2007,11,30,05,54,14.20
2007,11,30,05,55,16.90
2007,11,30,05,56,15.00
2007,11,30,05,57,16.20
2007,11,30,05,58,12.40
2007,11,30,05,59,15.90
2007,11,30,06,00,15.20
2007,11,30,06,01,15.80
2007,11,30,06,02,15.00
2007,11,30,06,03,16.50
2007,11,30,06,04,17.90
2007,11,30,06,05,18.00
2007,11,30,06,06,19.80
2007,11,30,06,07,16.40
2007,11,30,06,08,17.00
2007,11,30,06,09,17.00
2007,11,30,06,10,16.90
2007,11,30,06,11,13.70
2007,11,30,06,12,15.00
2007,11,30,06,13,14.80
2007,11,30,06,14,16.90
2007,11,30,06,15,12.80
2007,11,30,06,16,10.70
2007,11,30,06,17,19.10
2007,11,30,06,18,15.90
2007,11,30,06,19,14.90
2007,11,30,06,20,12.30
2007,11,30,06,21,16.90
2007,11,30,06,22,14.60
2007,11,30,06,23,13.60
2007,11,30,06,24,11.30
2007,11,30,06,25,16.40
2007,11,30,06,26,16.90
2007,11,30,06,27,19.10
2007,11,30,06,28,19.10
2007,11,30,06,29,16.20
2007,11,30,06,30,14.20
2007,11,30,06,31,13.00
2007,11,30,06,32,17.90
2007,11,30,06,33,12.70
2007,11,30,06,34,8.90
2007,11,30,06,35,10.00
2007,11,30,06,36,8.60
2007,11,30,06,37,19.50
2007,11,30,06,38,19.90
2007,11,30,06,39,9.90
2007,11,30,06,40,12.30
2007,11,30,06,41,16.40
2007,11,30,06,42,14.50
2007,11,30,06,43,12.20
2007,11,30,06,44,14.70
2007,11,30,06,45,15.30
2007,11,30,06,46,16.10
2007,11,30,06,47,10.30
2007,11,30,06,48,11.30
2007,11,30,06,49,13.60
2007,11,30,06,50,11.30
2007,11,30,06,51,16.10
2007,11,30,06,52,8.50
2007,11,30,06,53,10.90
2007,11,30,06,54,11.50
2007,11,30,06,55,23.50
2007,11,30,06,56,9.40
2007,11,30,06,57,13.00
2007,11,30,06,58,15.10
2007,11,30,06,59,13.30
2007,11,30,07,00,9.40
2007,11,30,07,01,10.60
2007,11,30,07,02,9.90
2007,11,30,07,03,13.70
2007,11,30,07,04,11.60
2007,11,30,07,05,9.50
2007,11,30,07,06,11.80
2007,11,30,07,07,14.60
2007,11,30,07,08,12.90
2007,11,30,07,09,11.00
2007,11,30,07,10,11.20
2007,11,30,07,11,14.70
2007,11,30,07,12,14.30
2007,11,30,07,13,13.40
2007,11,30,07,14,10.50
2007,11,30,07,15,15.90
2007,11,30,07,16,13.30
2007,11,30,07,17,9.10
2007,11,30,07,18,18.70
2007,11,30,07,19,16.00
2007,11,30,07,20,14.60
2007,11,30,07,21,16.70
2007,11,30,07,22,17.80
2007,11,30,07,23,15.70
2007,11,30,07,24,14.30
2007,11,30,07,25,18.60
2007,11,30,07,26,14.50
2007,11,30,07,27,15.10
2007,11,30,07,28,12.40
2007,11,30,07,29,18.40
2007,11,30,07,30,17.60
2007,11,30,07,31,16.30
2007,11,30,07,32,14.80
2007,11,30,07,33,15.40
2007,11,30,07,34,10.70
2007,11,30,07,35,13.40
2007,11,30,07,36,9.40
2007,11,30,07,37,8.10
2007,11,30,07,38,15.40
2007,11,30,07,39,17.70
2007,11,30,07,40,16.20
2007,11,30,07,41,18.50
2007,11,30,07,42,22.10
2007,11,30,07,43,13.50
2007,11,30,07,44,16.40
2007,11,30,07,45,17.00
2007,11,30,07,46,19.70
2007,11,30,07,47,18.10
2007,11,30,07,48,15.60
2007,11,30,07,49,18.90
2007,11,30,07,50,17.50
2007,11,30,07,51,19.80
2007,11,30,07,52,20.40
2007,11,30,07,53,17.00
2007,11,30,07,54,17.50
2007,11,30,07,55,21.30
2007,11,30,07,56,21.40
2007,11,30,07,57,19.10
2007,11,30,07,58,20.00
2007,11,30,07,59,17.30
2007,11,30,08,00,16.20
2007,11,30,08,01,11.30
2007,11,30,08,02,17.50
2007,11,30,08,03,15.80
2007,11,30,08,04,21.00
2007,11,30,08,05,18.80
2007,11,30,08,06,17.90
2007,11,30,08,07,22.70
2007,11,30,08,08,18.90
2007,11,30,08,09,19.60
2007,11,30,08,10,18.70
2007,11,30,08,11,21.70
2007,11,30,08,12,18.20
2007,11,30,08,13,14.60
2007,11,30,08,14,15.20
2007,11,30,08,15,18.00
2007,11,30,08,16,12.50
2007,11,30,08,17,12.20
2007,11,30,08,18,13.50
2007,11,30,08,19,18.90
2007,11,30,08,20,17.10
2007,11,30,08,21,17.30
2007,11,30,08,22,17.30
2007,11,30,08,23,16.50
2007,11,30,08,24,17.10
2007,11,30,08,25,17.00
2007,11,30,08,26,16.30
2007,11,30,08,27,22.30
2007,11,30,08,28,20.10
2007,11,30,08,29,17.70
2007,11,30,08,30,16.40
2007,11,30,08,31,15.20
2007,11,30,08,32,9.60
2007,11,30,08,33,15.20
2007,11,30,08,34,17.90
2007,11,30,08,35,18.30
2007,11,30,08,36,17.80
2007,11,30,08,37,19.40
2007,11,30,08,38,17.90
2007,11,30,08,39,16.50
2007,11,30,08,40,9.60
2007,11,30,08,41,11.20
2007,11,30,08,42,18.30
2007,11,30,08,43,13.40
2007,11,30,08,44,20.80
2007,11,30,08,45,16.90
2007,11,30,08,46,15.60
2007,11,30,08,47,16.30
2007,11,30,08,48,21.20
2007,11,30,08,49,20.60
2007,11,30,08,50,23.00
2007,11,30,08,51,16.50
2007,11,30,08,52,18.10
2007,11,30,08,53,19.00
2007,11,30,08,54,20.90
2007,11,30,08,55,15.90
2007,11,30,08,56,15.40
2007,11,30,08,57,11.80
2007,11,30,08,58,14.50
2007,11,30,08,59,13.70
2007,11,30,09,00,14.80
2007,11,30,09,01,11.60
2007,11,30,09,02,10.80
2007,11,30,09,03,11.00
2007,11,30,09,04,12.10
2007,11,30,09,05,15.90
2007,11,30,09,06,16.60
2007,11,30,09,07,14.70
2007,11,30,09,08,15.80
2007,11,30,09,09,14.70
2007,11,30,09,10,20.50
2007,11,30,09,11,18.70
2007,11,30,09,12,13.30
2007,11,30,09,13,14.90
2007,11,30,09,14,23.00
2007,11,30,09,15,22.60
2007,11,30,09,16,18.00
2007,11,30,09,17,15.90
2007,11,30,09,18,15.60
2007,11,30,09,19,18.90
2007,11,30,09,20,15.70
2007,11,30,09,21,18.40
2007,11,30,09,22,12.20
2007,11,30,09,23,16.50
2007,11,30,09,24,17.50
2007,11,30,09,25,13.20
2007,11,30,09,26,15.30
2007,11,30,09,27,14.70
2007,11,30,09,28,18.90
2007,11,30,09,29,14.20
2007,11,30,09,30,16.10
2007,11,30,09,31,15.80
2007,11,30,09,32,18.90
2007,11,30,09,33,20.20
2007,11,30,09,34,22.50
2007,11,30,09,35,20.20
2007,11,30,09,36,19.70
2007,11,30,09,37,16.40
2007,11,30,09,38,21.70
2007,11,30,09,39,16.50
2007,11,30,09,40,16.40
2007,11,30,09,41,13.30
2007,11,30,09,42,17.30
2007,11,30,09,43,15.60
2007,11,30,09,44,11.40
2007,11,30,09,45,10.20
2007,11,30,09,46,18.50
2007,11,30,09,47,15.80
2007,11,30,09,48,22.30
2007,11,30,09,49,23.30
2007,11,30,09,50,19.70
2007,11,30,09,51,22.10
2007,11,30,09,52,26.30
2007,11,30,09,53,22.50
2007,11,30,09,54,20.40
2007,11,30,09,55,16.00
2007,11,30,09,56,17.20
2007,11,30,09,57,19.50
2007,11,30,09,58,15.10
2007,11,30,09,59,16.30
2007,11,30,10,00,18.50
2007,11,30,10,01,15.80
2007,11,30,10,02,16.40
2007,11,30,10,03,17.30
2007,11,30,10,04,21.00
2007,11,30,10,05,19.30
2007,11,30,10,06,18.40
2007,11,30,10,07,20.00
2007,11,30,10,08,19.30
2007,11,30,10,09,21.20
2007,11,30,10,10,20.10
2007,11,30,10,11,17.80
2007,11,30,10,12,20.30
2007,11,30,10,13,16.30
2007,11,30,10,14,16.60
2007,11,30,10,15,21.20
2007,11,30,10,16,19.70
2007,11,30,10,17,23.30
2007,11,30,10,18,22.50
2007,11,30,10,19,23.40
2007,11,30,10,20,12.40
2007,11,30,10,21,18.10
2007,11,30,10,22,22.80
2007,11,30,10,23,17.40
2007,11,30,10,24,17.40
2007,11,30,10,25,18.00
2007,11,30,10,26,17.30
2007,11,30,10,27,21.40
2007,11,30,10,28,17.90
2007,11,30,10,29,19.60
2007,11,30,10,30,20.90
2007,11,30,10,31,13.40
2007,11,30,10,32,20.00
2007,11,30,10,33,16.40
2007,11,30,10,34,17.80
2007,11,30,10,35,20.00
2007,11,30,10,36,25.00
2007,11,30,10,37,16.30
2007,11,30,10,38,17.20
2007,11,30,10,39,12.70
2007,11,30,10,40,12.20
2007,11,30,10,41,17.30
2007,11,30,10,42,24.80
2007,11,30,10,43,21.40
2007,11,30,10,44,25.70
2007,11,30,10,45,21.80
2007,11,30,10,46,15.90
2007,11,30,10,47,21.90
2007,11,30,10,48,17.20
2007,11,30,10,49,14.30
2007,11,30,10,50,16.40
2007,11,30,10,51,16.60
2007,11,30,10,52,20.40
2007,11,30,10,53,20.70
2007,11,30,10,54,20.90
2007,11,30,10,55,18.30
2007,11,30,10,56,14.10
2007,11,30,10,57,19.70
2007,11,30,10,58,17.60
2007,11,30,10,59,21.40
2007,11,30,11,00,18.80
2007,11,30,11,01,20.90
2007,11,30,11,02,19.20
2007,11,30,11,03,25.40
2007,11,30,11,04,24.40
2007,11,30,11,05,21.90
2007,11,30,11,06,18.00
2007,11,30,11,07,16.70
2007,11,30,11,08,19.10
2007,11,30,11,09,23.70
2007,11,30,11,10,20.40
2007,11,30,11,11,22.20
2007,11,30,11,12,19.00
2007,11,30,11,13,20.90
2007,11,30,11,14,15.70
2007,11,30,11,15,19.20
2007,11,30,11,16,16.40
2007,11,30,11,17,24.80
2007,11,30,11,18,19.60
2007,11,30,11,19,18.30
2007,11,30,11,20,12.70
2007,11,30,11,21,20.60
2007,11,30,11,22,24.20
2007,11,30,11,23,22.90
2007,11,30,11,24,15.70
2007,11,30,11,25,19.80
2007,11,30,11,26,23.40
2007,11,30,11,27,19.90
2007,11,30,11,28,18.30
2007,11,30,11,29,23.00
2007,11,30,11,30,19.60
2007,11,30,11,31,20.10
2007,11,30,11,32,18.10
2007,11,30,11,33,11.80
2007,11,30,11,34,16.50
2007,11,30,11,35,22.60
2007,11,30,11,36,23.00
2007,11,30,11,37,20.20
2007,11,30,11,38,20.10
2007,11,30,11,39,18.70
2007,11,30,11,40,21.70
2007,11,30,11,41,21.80
2007,11,30,11,42,25.00
2007,11,30,11,43,23.00
2007,11,30,11,44,21.70
2007,11,30,11,45,17.50
2007,11,30,11,46,22.50
2007,11,30,11,47,20.60
2007,11,30,11,48,20.40
2007,11,30,11,49,19.60
2007,11,30,11,50,19.10
2007,11,30,11,51,21.50
2007,11,30,11,52,22.40
2007,11,30,11,53,20.40
2007,11,30,11,54,20.10
2007,11,30,11,55,19.60
2007,11,30,11,56,19.90
2007,11,30,11,57,20.80
2007,11,30,11,58,22.10
2007,11,30,11,59,16.70
2007,11,30,12,00,17.00
2007,11,30,12,01,18.60
2007,11,30,12,02,16.20
2007,11,30,12,03,17.40
2007,11,30,12,04,24.10
2007,11,30,12,05,23.00
2007,11,30,12,06,23.90
2007,11,30,12,07,21.30
2007,11,30,12,08,11.20
2007,11,30,12,09,18.20
2007,11,30,12,10,15.00
2007,11,30,12,11,14.70
2007,11,30,12,12,17.70
2007,11,30,12,13,20.50
2007,11,30,12,14,21.60
2007,11,30,12,15,19.00
2007,11,30,12,16,22.10
2007,11,30,12,17,16.70
2007,11,30,12,18,17.10
2007,11,30,12,19,17.30
2007,11,30,12,20,20.00
2007,11,30,12,21,16.20
2007,11,30,12,22,17.40
2007,11,30,12,23,22.70
2007,11,30,12,24,20.30
2007,11,30,12,25,10.30
2007,11,30,12,26,7.60
2007,11,30,12,27,9.90
2007,11,30,12,28,17.90
2007,11,30,12,29,22.50
2007,11,30,12,30,20.50
2007,11,30,12,31,17.70
2007,11,30,12,32,17.30
2007,11,30,12,33,17.90
2007,11,30,12,34,18.80
2007,11,30,12,35,11.50
2007,11,30,12,36,13.00
2007,11,30,12,37,18.00
2007,11,30,12,38,21.90
2007,11,30,12,39,17.90
2007,11,30,12,40,17.10
2007,11,30,12,41,13.20
2007,11,30,12,42,22.60
2007,11,30,12,43,15.20
2007,11,30,12,44,11.80
2007,11,30,12,45,11.70
2007,11,30,12,46,14.80
2007,11,30,12,47,15.40
2007,11,30,12,48,13.80
2007,11,30,12,49,15.30
2007,11,30,12,50,12.50
2007,11,30,12,51,16.70
2007,11,30,12,52,14.80
2007,11,30,12,53,15.10
2007,11,30,12,54,16.70
2007,11,30,12,55,19.30
2007,11,30,12,56,15.30
2007,11,30,12,57,9.50
2007,11,30,12,58,15.70
2007,11,30,12,59,15.00
2007,11,30,13,00,16.00
2007,11,30,13,01,17.20
2007,11,30,13,02,15.00
2007,11,30,13,03,14.00
2007,11,30,13,04,16.60
2007,11,30,13,05,14.40
2007,11,30,13,06,18.20
2007,11,30,13,07,13.40
2007,11,30,13,08,13.70
2007,11,30,13,09,10.40
2007,11,30,13,10,9.00
2007,11,30,13,11,12.10
2007,11,30,13,12,16.70
2007,11,30,13,13,14.60
2007,11,30,13,14,13.30
2007,11,30,13,15,14.50
2007,11,30,13,16,19.30
2007,11,30,13,17,12.20
2007,11,30,13,18,11.00
2007,11,30,13,19,12.60
2007,11,30,13,20,11.80
2007,11,30,13,21,7.50
2007,11,30,13,22,16.10
2007,11,30,13,23,13.20
2007,11,30,13,24,12.70
2007,11,30,13,25,10.50
2007,11,30,13,26,13.70
2007,11,30,13,27,16.80
2007,11,30,13,28,15.00
2007,11,30,13,29,11.70
2007,11,30,13,30,11.20
2007,11,30,13,31,7.50
2007,11,30,13,32,9.70
2007,11,30,13,33,11.00
2007,11,30,13,34,12.50
2007,11,30,13,35,9.00
2007,11,30,13,36,8.40
2007,11,30,13,37,9.30
2007,11,30,13,38,14.60
2007,11,30,13,39,14.30
2007,11,30,13,40,18.60
2007,11,30,13,41,14.20
2007,11,30,13,42,15.90
2007,11,30,13,43,12.80
2007,11,30,13,44,10.20
2007,11,30,13,45,7.60
2007,11,30,13,46,12.20
2007,11,30,13,47,9.40
2007,11,30,13,48,8.90
2007,11,30,13,49,8.40
2007,11,30,13,50,8.30
2007,11,30,13,51,8.60
2007,11,30,13,52,13.70
2007,11,30,13,53,12.70
2007,11,30,13,54,10.70
2007,11,30,13,55,10.70
2007,11,30,13,56,14.20
2007,11,30,13,57,16.90
2007,11,30,13,58,12.80
2007,11,30,13,59,17.70
2007,11,30,14,00,14.30
2007,11,30,14,01,11.80
2007,11,30,14,02,13.00
2007,11,30,14,03,15.80
2007,11,30,14,04,11.80
2007,11,30,14,05,12.40
2007,11,30,14,06,8.50
2007,11,30,14,07,7.80
2007,11,30,14,08,9.90
2007,11,30,14,09,13.00
2007,11,30,14,10,17.20
2007,11,30,14,11,12.80
2007,11,30,14,12,16.40
2007,11,30,14,13,15.30
2007,11,30,14,14,14.40
2007,11,30,14,15,12.20
2007,11,30,14,16,13.00
2007,11,30,14,17,11.10
2007,11,30,14,18,16.20
2007,11,30,14,19,9.50
2007,11,30,14,20,11.60
2007,11,30,14,21,14.60
2007,11,30,14,22,13.40
2007,11,30,14,23,11.50
2007,11,30,14,24,8.60
2007,11,30,14,25,7.40
2007,11,30,14,26,7.60
2007,11,30,14,27,9.40
2007,11,30,14,28,16.30
2007,11,30,14,29,12.60
2007,11,30,14,30,6.40
2007,11,30,14,31,11.70
2007,11,30,14,32,11.30
2007,11,30,14,33,13.90
2007,11,30,14,34,11.70
2007,11,30,14,35,14.00
2007,11,30,14,36,14.30
2007,11,30,14,37,14.20
2007,11,30,14,38,8.30
2007,11,30,14,39,11.30
2007,11,30,14,40,10.30
2007,11,30,14,41,13.60
2007,11,30,14,42,10.90
2007,11,30,14,43,13.90
2007,11,30,14,44,9.50
2007,11,30,14,45,6.50
2007,11,30,14,46,3.40
2007,11,30,14,47,5.20
2007,11,30,14,48,8.60
2007,11,30,14,49,9.30
2007,11,30,14,50,7.50
2007,11,30,14,51,11.60
2007,11,30,14,52,8.60
2007,11,30,14,53,8.80
2007,11,30,14,54,6.60
2007,11,30,14,55,8.10
2007,11,30,14,56,6.70
2007,11,30,14,57,12.50
2007,11,30,14,58,10.80
2007,11,30,14,59,10.60
2007,11,30,15,00,12.60
2007,11,30,15,01,9.00
2007,11,30,15,02,9.80
2007,11,30,15,03,9.80
2007,11,30,15,04,11.60
2007,11,30,15,05,9.60
2007,11,30,15,06,13.30
2007,11,30,15,07,9.80
2007,11,30,15,08,13.60
2007,11,30,15,09,14.10
2007,11,30,15,10,11.30
2007,11,30,15,11,10.80
2007,11,30,15,12,8.70
2007,11,30,15,13,10.90
2007,11,30,15,14,10.50
2007,11,30,15,15,8.80
2007,11,30,15,16,10.80
2007,11,30,15,17,11.00
2007,11,30,15,18,9.70
2007,11,30,15,19,7.00
2007,11,30,15,20,8.90
2007,11,30,15,21,11.10
2007,11,30,15,22,11.00
2007,11,30,15,23,9.50
2007,11,30,15,24,4.90
2007,11,30,15,25,7.50
2007,11,30,15,26,8.30
2007,11,30,15,27,7.10
2007,11,30,15,28,13.20
2007,11,30,15,29,10.40
2007,11,30,15,30,11.40
2007,11,30,15,31,6.60
2007,11,30,15,32,10.30
2007,11,30,15,33,12.40
2007,11,30,15,34,10.60
2007,11,30,15,35,8.20
2007,11,30,15,36,10.40
2007,11,30,15,37,5.70
2007,11,30,15,38,7.20
2007,11,30,15,39,8.10
2007,11,30,15,40,7.60
2007,11,30,15,41,5.50
2007,11,30,15,42,7.40
2007,11,30,15,43,8.20
2007,11,30,15,44,7.20
2007,11,30,15,45,8.70
2007,11,30,15,46,8.60
2007,11,30,15,47,9.60
2007,11,30,15,48,8.70
2007,11,30,15,49,11.80
2007,11,30,15,50,8.00
2007,11,30,15,51,6.00
2007,11,30,15,52,6.80
2007,11,30,15,53,9.20
2007,11,30,15,54,12.70
2007,11,30,15,55,12.40
2007,11,30,15,56,7.70
2007,11,30,15,57,6.50
2007,11,30,15,58,5.80
2007,11,30,15,59,11.50
2007,11,30,16,00,12.10
2007,11,30,16,01,9.60
2007,11,30,16,02,7.80
2007,11,30,16,03,9.60
2007,11,30,16,04,11.70
2007,11,30,16,05,6.70
2007,11,30,16,06,7.90
2007,11,30,16,07,6.80
2007,11,30,16,08,14.30
2007,11,30,16,09,9.10
2007,11,30,16,10,10.10
2007,11,30,16,11,8.80
2007,11,30,16,12,10.50
2007,11,30,16,13,11.70
2007,11,30,16,14,11.60
2007,11,30,16,15,11.50
2007,11,30,16,16,11.40
2007,11,30,16,17,9.10
2007,11,30,16,18,9.00
2007,11,30,16,19,10.50
2007,11,30,16,20,6.40
2007,11,30,16,21,4.00
2007,11,30,16,22,3.20
2007,11,30,16,23,9.10
2007,11,30,16,24,7.70
2007,11,30,16,25,7.30
2007,11,30,16,26,8.20
2007,11,30,16,27,7.20
2007,11,30,16,28,10.40
2007,11,30,16,29,12.00
2007,11,30,16,30,11.60
2007,11,30,16,31,9.70
2007,11,30,16,32,11.40
2007,11,30,16,33,9.70
2007,11,30,16,34,13.00
2007,11,30,16,35,9.70
2007,11,30,16,36,6.30
2007,11,30,16,37,11.90
2007,11,30,16,38,10.00
2007,11,30,16,39,6.70
2007,11,30,16,40,6.70
2007,11,30,16,41,10.10
2007,11,30,16,42,7.50
2007,11,30,16,43,7.70
2007,11,30,16,44,6.30
2007,11,30,16,45,6.00
2007,11,30,16,46,6.40
2007,11,30,16,47,7.40
2007,11,30,16,48,8.60
2007,11,30,16,49,5.90
2007,11,30,16,50,4.70
2007,11,30,16,51,5.80
2007,11,30,16,52,9.30
2007,11,30,16,53,8.10
2007,11,30,16,54,7.60
2007,11,30,16,55,6.10
2007,11,30,16,56,6.00
2007,11,30,16,57,5.90
2007,11,30,16,58,5.40
2007,11,30,16,59,6.40
2007,11,30,17,00,7.60
2007,11,30,17,01,9.60
2007,11,30,17,02,7.00
2007,11,30,17,03,7.60
2007,11,30,17,04,4.70
2007,11,30,17,05,3.90
2007,11,30,17,06,5.80
2007,11,30,17,07,6.40
2007,11,30,17,08,7.40
2007,11,30,17,09,7.20
2007,11,30,17,10,5.90
2007,11,30,17,11,5.10
2007,11,30,17,12,7.40
2007,11,30,17,13,5.60
2007,11,30,17,14,9.00
2007,11,30,17,15,12.90
2007,11,30,17,16,9.70
2007,11,30,17,17,10.00
2007,11,30,17,18,7.60
2007,11,30,17,19,5.30
2007,11,30,17,20,5.10
2007,11,30,17,21,9.00
2007,11,30,17,22,7.90
2007,11,30,17,23,8.90
2007,11,30,17,24,6.20
2007,11,30,17,25,8.30
2007,11,30,17,26,9.10
2007,11,30,17,27,7.00